GFSMA_sfc_30mbdewp_009.txt.gz
Dewpoint
67 67 68 66 67 66 67 65 65 65 64 66 64 61 59 56 55 56 58 70 70 70 71 71 71 71 71 70 71 71 70 69 67 67 68 67 68 68 69 69 67 67 69
69 67 69 67 66 66 69 66 68 66 67 65 61 59 58 57 57 59 57 66 69 69 70 71 71 71 71 71 70 71 71 70 69 69 68 69 70 70 69 68 67 67 68
68 69 67 67 64 68 69 68 68 67 67 58 56 55 56 56 57 59 58 55 66 69 69 70 72 72 72 71 71 70 71 72 71 71 71 71 71 71 71 70 69 69 69
70 69 67 67 67 67 67 67 67 66 58 55 54 55 55 56 58 58 58 58 56 58 69 70 69 69 70 69 70 71 71 70 71 72 72 72 72 72 71 71 71 71 70
70 69 67 66 68 67 67 67 66 66 57 55 54 51 55 56 56 56 57 58 60 59 57 69 70 69 69 69 70 70 71 71 71 70 71 72 72 72 72 72 72 72 72
70 69 67 68 69 66 66 67 65 60 59 57 54 50 55 57 56 55 56 54 56 58 60 61 66 67 69 69 69 70 71 71 71 71 71 71 72 72 72 72 72 72 72
70 70 69 69 68 67 66 62 60 57 56 57 55 54 54 57 56 55 53 51 53 52 57 61 62 64 68 69 71 71 71 71 70 70 71 71 71 71 72 72 73 72 72
69 70 70 65 66 63 62 62 60 58 55 57 55 52 50 54 55 52 52 49 51 50 53 57 61 64 65 66 68 66 66 68 70 70 70 70 71 71 71 72 72 73 73
69 71 70 69 67 64 51 62 60 59 55 57 60 56 50 50 52 53 55 51 51 50 51 53 56 57 57 58 65 62 62 63 64 65 67 69 70 71 71 71 71 72 72
68 69 69 66 66 58 60 60 59 61 60 54 55 56 58 57 51 48 51 52 51 50 53 51 49 54 54 51 60 59 60 60 60 60 61 62 63 65 67 70 71 71 71
66 66 66 65 63 58 61 63 61 62 61 56 53 52 57 53 55 49 47 47 49 51 51 51 51 49 51 52 50 57 58 60 59 59 59 59 60 61 62 63 66 68 71
66 65 64 65 62 59 61 62 62 61 60 60 58 57 52 50 49 49 47 47 47 48 50 51 51 51 49 49 52 53 55 57 58 58 58 59 60 60 60 60 61 62 64
61 68 66 66 63 62 62 62 62 61 60 59 59 57 55 53 52 50 48 47 48 50 51 52 53 54 52 51 52 55 57 57 58 58 57 58 59 60 59 59 59 60 61
60 68 67 65 64 61 62 62 59 59 58 59 59 59 56 54 54 50 50 52 53 53 54 54 56 55 52 52 53 54 55 58 59 58 57 57 58 59 59 59 59 59 59
60 61 65 65 64 60 62 61 58 59 59 58 58 59 58 54 51 50 51 55 55 52 51 50 49 57 53 54 55 55 55 57 59 58 57 57 57 58 58 58 58 59 59
65 64 66 65 63 61 63 61 59 59 59 58 55 55 57 54 53 52 55 53 50 49 47 49 50 52 54 53 54 56 56 57 57 58 58 58 57 57 57 58 58 58 59
69 65 68 66 62 62 63 63 61 58 59 60 60 56 56 59 56 53 51 51 49 49 49 50 51 52 59 57 57 58 57 58 56 55 57 59 58 57 56 56 57 56 57
70 68 68 66 63 62 61 62 61 59 57 57 56 58 58 57 60 62 56 58 55 54 53 54 54 53 55 56 58 58 57 54 54 52 56 57 57 56 56 56 55 55 55
71 68 68 67 63 63 63 63 62 62 59 58 57 59 58 60 60 57 59 57 54 55 54 50 50 52 53 54 54 56 58 58 58 53 53 55 56 56 56 55 54 54 54
72 69 67 67 65 64 64 63 62 62 62 61 60 59 59 60 60 60 60 60 59 57 54 53 51 52 53 53 55 50 53 54 53 52 50 49 50 54 55 55 54 54 54
72 69 67 66 65 61 61 63 60 59 62 61 58 59 60 60 60 61 60 59 60 56 53 52 51 50 49 50 52 53 54 53 53 51 49 51 50 50 48 51 55 56 55
71 68 65 63 60 58 56 60 61 58 61 60 59 61 62 62 59 59 60 60 60 59 57 54 53 52 54 55 53 54 55 52 49 51 51 50 49 48 49 51 51 50 50
69 66 64 60 59 60 60 60 60 58 59 60 61 61 61 59 58 58 61 61 60 59 58 57 57 58 57 58 57 56 54 53 52 50 51 50 50 51 52 50 50 50 50
68 66 63 60 61 62 61 59 59 59 59 59 60 62 62 62 61 62 61 60 61 60 60 59 59 59 57 56 56 54 54 54 52 52 51 50 51 51 52 51 51 52 51
68 65 63 62 64 64 61 60 61 60 61 62 62 62 62 63 62 61 60 59 58 58 57 55 54 54 52 52 52 51 49 46 45 47 51 50 50 50 49 49 52 52 53
67 65 62 64 65 64 62 61 62 63 61 61 62 64 63 61 59 58 58 56 56 56 54 53 55 53 53 55 54 54 51 49 47 48 48 49 46 46 49 52 52 54 56

GFSMA_sfc_30mbdewp_015.txt.gz
Dewpoint
69 68 68 70 70 66 70 69 69 69 68 68 67 65 57 57 60 69 69 70 70 72 72 72 71 71 71 71 71 71 70 69 68 70 70 70 70 69 69 69 70 70 69
70 70 70 70 70 70 70 70 68 67 68 67 68 66 58 60 60 64 69 70 69 69 71 72 71 71 72 71 71 71 71 70 69 68 70 71 70 70 70 70 70 69 69
70 70 69 70 68 71 70 67 68 67 65 65 64 62 59 60 59 58 62 69 70 68 70 71 71 71 72 71 70 72 72 72 71 70 70 70 70 70 71 71 71 70 69
70 71 70 68 69 68 69 69 69 67 65 64 58 59 54 59 59 58 61 67 69 69 69 69 69 69 70 71 71 71 71 72 72 72 72 71 71 72 72 72 71 71 70
71 69 71 70 68 70 69 67 66 66 61 59 56 56 60 57 59 60 61 59 63 68 69 68 68 68 69 69 70 70 70 71 71 72 72 72 72 72 72 72 72 72 72
72 70 70 70 70 70 68 66 65 63 61 61 60 57 58 58 56 60 59 56 61 68 68 67 68 68 68 69 69 70 71 70 71 71 71 70 71 72 72 72 72 72 71
71 71 71 70 71 69 66 66 65 60 60 61 56 58 60 59 58 54 53 53 56 61 66 67 68 69 68 69 70 70 71 70 70 70 70 69 69 69 70 71 72 72 72
72 70 70 70 70 68 66 62 61 61 61 62 55 58 57 58 59 53 52 51 56 58 62 62 63 67 68 67 66 66 67 67 68 70 71 71 71 71 70 70 69 69 71
72 70 71 70 68 66 64 62 62 62 58 63 58 57 55 55 58 57 53 51 54 53 57 60 57 60 68 65 62 60 60 61 62 62 63 64 65 66 67 69 70 71 70
72 71 71 71 68 66 65 63 63 61 63 58 62 59 58 55 54 55 57 53 55 52 53 57 58 57 66 65 62 58 57 58 58 59 59 60 61 61 62 63 65 67 68
71 72 71 71 66 64 66 64 62 60 63 63 61 62 60 59 57 52 54 54 57 56 55 53 58 56 59 63 59 57 56 55 55 57 58 58 59 60 60 61 61 62 63
70 72 71 67 65 62 65 64 63 63 63 63 61 61 60 56 55 54 54 51 53 55 56 58 53 54 57 60 59 58 58 57 56 55 55 56 57 58 58 58 59 59 60
70 71 70 66 64 63 65 64 63 62 62 61 62 60 61 59 57 55 52 54 52 56 54 58 58 56 56 58 60 58 59 58 58 56 57 56 56 57 58 57 57 57 57
69 70 69 67 64 62 67 66 65 63 63 61 61 60 59 59 60 57 55 53 52 54 54 52 60 58 58 56 57 59 58 58 59 59 58 58 58 58 58 59 58 57 57
69 69 69 67 66 64 63 66 65 62 64 63 59 60 59 58 59 59 56 55 52 50 51 53 54 60 59 57 59 58 55 58 59 59 58 58 58 59 60 59 58 58 58
69 69 70 68 68 65 64 66 63 64 62 64 63 62 60 59 60 59 59 57 56 53 52 56 53 54 56 57 58 59 57 59 58 59 60 58 58 59 60 60 59 58 58
69 69 69 69 67 66 66 66 64 62 63 61 62 60 62 61 59 58 61 58 55 56 54 53 55 57 58 56 56 59 59 60 59 59 59 59 59 60 60 61 60 60 59
70 70 69 69 68 66 65 66 64 62 61 63 61 61 59 60 60 58 61 60 61 60 57 54 57 56 56 57 59 59 58 58 60 59 59 60 59 59 59 59 60 59 59
70 70 70 68 68 67 66 66 64 62 63 62 63 61 60 59 58 60 60 60 61 60 60 58 57 58 57 58 56 56 58 58 60 61 59 58 56 55 56 57 58 58 58
72 69 69 69 68 67 65 66 64 63 62 64 63 63 62 60 59 62 61 61 60 60 60 58 58 58 58 57 58 57 55 57 56 58 58 58 57 56 55 56 56 58 57
72 72 69 69 69 68 65 65 65 64 63 63 63 63 62 62 61 62 62 60 61 61 60 59 57 55 54 54 55 56 57 57 57 57 56 56 55 54 53 54 55 55 55
73 72 71 70 69 68 66 65 65 65 65 64 63 64 63 62 63 63 63 62 62 60 60 58 56 55 54 56 57 57 57 56 54 56 55 52 51 51 50 52 52 53 54
73 74 72 71 69 69 66 64 65 65 64 64 64 64 64 62 61 61 61 61 61 61 61 58 56 56 55 56 58 57 56 56 56 55 52 51 52 52 53 54 52 52 53
73 74 73 72 70 68 64 63 62 64 64 64 64 64 63 62 62 63 63 62 61 61 61 61 59 58 59 59 60 58 57 56 54 54 54 51 53 52 51 52 53 51 49
74 74 72 70 67 67 64 61 60 60 61 61 63 64 64 63 63 62 61 61 61 61 61 61 62 62 60 60 60 57 53 52 50 50 51 51 51 50 49 46 45 46 48
72 72 69 68 66 64 62 61 60 60 60 61 61 63 62 63 63 62 61 60 58 58 59 58 57 57 56 54 54 54 52 51 51 51 52 51 49 45 42 43 46 50 51

GFSMA_sfc_30mbdewp_021.txt.gz
Dewpoint
69 69 68 68 69 68 67 67 68 69 68 68 66 65 60 66 68 67 68 69 69 71 70 70 70 69 70 70 70 69 71 70 69 69 68 70 69 67 67 68 68 68 68
69 68 67 69 69 69 66 67 69 68 67 65 64 64 65 60 67 68 68 68 69 69 71 69 70 70 70 71 70 70 70 69 67 68 69 70 70 69 68 68 69 70 70
69 68 67 69 69 69 69 69 68 68 63 61 58 58 60 61 65 68 67 68 69 68 70 71 70 70 70 70 70 70 71 71 70 69 70 70 70 70 70 69 69 70 70
70 69 70 70 68 70 70 68 68 67 63 59 57 58 57 60 60 64 67 68 68 68 68 69 70 70 69 69 69 70 71 71 71 71 70 69 70 71 70 71 70 71 71
70 70 70 68 69 69 68 68 66 65 59 58 59 57 60 59 60 61 61 66 68 68 67 68 67 69 68 68 67 69 69 70 70 71 71 70 70 70 70 71 71 72 71
71 70 69 69 68 69 68 67 65 63 60 60 61 57 59 57 61 59 57 65 67 68 68 67 68 68 68 68 69 69 69 70 69 69 70 71 70 70 70 71 71 71 71
71 70 68 70 69 68 67 66 64 60 58 61 54 56 60 57 57 55 61 66 66 67 67 67 68 69 69 69 69 69 69 69 69 69 68 67 69 69 70 69 69 70 70
71 70 69 70 69 69 67 65 61 59 60 61 55 56 56 56 54 54 57 62 64 66 66 67 68 68 68 67 68 68 70 70 70 69 69 69 69 70 70 69 70 70 70
71 71 69 70 70 68 65 63 61 59 57 62 58 57 55 54 56 56 55 58 62 63 63 65 67 67 65 64 64 64 65 66 66 65 64 64 64 64 65 66 66 67 68
70 71 70 70 69 69 65 62 61 60 59 59 61 59 57 57 53 50 55 54 54 56 59 59 64 66 66 63 60 58 59 59 59 59 58 58 59 60 61 62 62 63 64
70 70 70 69 67 68 66 63 62 62 61 58 58 58 58 58 53 53 50 52 56 55 54 59 58 59 66 64 60 57 58 57 57 57 55 55 56 57 58 59 60 60 61
71 71 70 69 67 64 64 62 63 61 63 61 61 61 58 53 55 52 52 53 53 54 57 56 55 57 61 65 63 59 60 58 57 57 56 57 58 57 56 56 57 57 58
71 70 70 69 67 65 64 63 62 60 62 62 60 60 60 58 57 55 51 52 51 53 54 55 57 56 58 60 63 63 62 60 58 56 56 57 58 59 60 60 60 59 58
70 71 70 70 68 64 64 64 62 62 61 61 60 59 60 59 58 55 51 53 51 52 54 52 56 59 57 57 60 62 62 62 60 59 58 58 59 59 60 61 61 61 61
70 71 71 70 68 64 63 63 62 62 62 61 60 62 60 59 60 59 58 54 50 48 49 51 53 56 59 58 58 60 62 60 60 59 59 59 58 58 59 60 61 61 61
70 70 70 69 67 65 64 63 63 62 63 62 61 59 60 59 58 59 57 56 53 50 49 52 54 53 55 57 58 61 60 61 59 59 60 60 61 61 61 61 62 62 62
70 69 70 69 67 65 64 64 64 63 62 62 62 61 59 59 58 59 59 58 56 54 51 53 56 55 55 56 57 56 57 58 59 59 60 60 61 61 61 62 61 61 62
70 69 69 68 67 65 63 64 64 64 62 61 61 62 61 61 60 59 58 58 56 56 55 52 54 56 56 56 57 58 58 59 58 58 58 58 59 59 59 59 60 59 59
69 69 69 68 67 66 65 63 64 63 63 62 61 60 61 61 60 60 60 59 59 59 59 57 55 57 57 58 57 57 56 57 58 58 57 58 57 58 57 56 54 54 54
69 69 69 68 68 67 66 65 63 63 63 63 63 61 60 61 60 59 59 59 59 59 59 58 58 58 58 58 57 56 55 56 56 57 58 57 57 56 54 52 52 52 52
70 69 68 68 68 67 66 65 65 64 63 63 62 63 62 62 61 60 59 59 59 59 60 59 58 58 57 55 56 56 55 55 57 57 56 55 55 53 50 52 53 53 53
70 69 69 68 68 68 67 66 65 65 64 64 63 63 63 63 63 62 61 60 60 59 59 59 58 56 55 57 57 57 56 55 54 56 55 54 55 52 50 51 52 53 54
70 70 69 69 68 68 67 66 65 66 65 64 63 63 63 63 63 63 63 62 61 61 61 60 55 55 57 59 58 56 56 56 55 56 55 54 53 51 51 52 53 53 53
71 71 70 69 69 69 67 65 65 66 65 65 64 64 63 62 63 63 63 62 62 62 62 62 59 59 60 60 59 58 57 57 56 56 55 52 52 51 52 52 52 52 51
71 71 71 70 70 70 68 66 64 66 66 65 65 65 64 63 63 63 63 61 61 61 63 62 61 62 62 61 60 59 56 55 53 52 53 51 51 50 50 50 50 50 49
72 72 71 71 71 70 68 66 65 66 65 65 65 65 64 64 64 63 63 61 60 60 60 59 59 57 55 53 54 56 54 52 51 50 51 50 49 49 45 46 44 44 44

GFSMA_sfc_30mbdewp_024.txt.gz
Dewpoint
68 69 69 68 69 69 67 67 68 69 69 68 67 63 62 65 66 67 68 69 70 71 70 69 71 70 69 70 70 69 70 69 69 70 68 69 69 68 68 67 68 69 68
69 69 68 68 68 69 68 67 69 67 67 65 64 66 65 62 66 68 68 67 70 70 71 69 69 70 69 70 70 70 70 70 69 69 69 69 70 69 68 68 69 69 69
69 69 68 68 69 70 69 69 68 68 64 60 58 60 61 61 63 67 68 68 68 68 70 70 70 69 69 69 70 70 71 70 69 68 69 70 70 70 70 69 68 69 70
70 69 68 68 70 70 70 68 68 68 64 59 58 59 58 61 62 67 67 68 68 68 68 68 69 70 69 68 69 70 71 71 71 71 70 70 69 70 70 71 70 70 70
70 69 69 70 69 69 69 68 67 66 60 59 61 58 60 60 61 61 62 65 67 69 68 67 67 69 68 67 68 69 68 70 71 71 71 71 71 70 71 71 71 71 71
70 70 70 70 69 69 68 68 66 63 60 62 60 59 60 59 62 61 60 65 68 69 68 68 69 69 67 68 68 68 68 68 69 70 70 70 71 70 70 70 71 71 71
71 70 70 70 69 69 68 67 64 61 59 61 55 57 59 58 56 57 64 67 68 68 67 67 68 69 69 68 67 68 69 69 68 68 68 68 68 68 68 68 68 68 69
71 70 69 69 69 69 67 66 62 60 60 60 56 56 55 55 55 56 61 63 66 67 67 68 69 69 68 68 68 68 70 70 69 69 69 69 69 69 69 69 69 68 69
71 70 69 69 69 69 68 66 62 59 57 62 58 57 55 53 56 56 57 59 63 64 64 66 67 67 66 65 64 64 64 66 66 65 64 64 64 64 65 65 65 65 66
70 71 70 70 69 69 67 65 62 60 59 59 61 59 58 58 53 51 56 56 57 59 61 61 65 67 66 64 61 58 59 58 58 58 58 58 59 59 60 61 62 62 63
70 71 71 70 69 69 68 65 63 61 60 59 59 58 58 57 55 53 51 52 56 57 56 60 60 63 67 65 62 58 59 57 57 56 55 55 56 56 56 57 58 59 59
70 70 70 70 69 68 68 66 63 62 62 60 60 60 57 54 54 53 53 54 53 55 58 57 57 59 60 66 64 61 59 59 58 58 57 57 58 59 59 58 58 59 59
70 70 70 70 69 67 66 65 63 62 63 62 60 61 61 58 57 55 53 53 53 54 55 57 58 58 59 61 65 65 63 62 59 58 58 58 58 60 61 61 61 61 61
69 71 71 70 69 67 66 64 63 62 62 62 61 60 60 60 59 56 52 53 52 53 54 53 56 60 60 59 60 63 65 62 61 59 58 58 58 59 60 61 61 62 62
70 71 71 70 70 67 66 65 63 62 61 62 62 61 60 60 61 59 56 54 51 49 50 52 53 56 61 60 60 61 64 63 61 61 61 60 59 59 60 60 61 61 61
69 70 71 71 69 67 66 65 64 63 63 62 61 61 61 60 60 60 59 58 54 53 51 52 55 56 56 58 59 62 61 61 62 61 60 59 60 61 62 62 62 63 62
69 70 70 70 69 68 66 65 63 63 62 62 62 60 60 60 59 59 59 58 56 54 52 54 56 57 56 57 58 59 59 60 60 59 60 60 60 61 61 61 61 62 62
69 69 70 70 69 68 66 66 64 63 62 62 62 62 61 60 59 59 59 59 58 58 56 54 55 56 57 58 58 59 59 59 59 58 58 58 58 58 58 58 58 58 57
69 69 69 69 69 68 66 66 65 64 63 63 62 62 62 61 60 60 60 59 59 58 58 56 56 58 59 59 59 59 58 58 59 58 57 58 57 57 56 55 53 52 51
69 69 69 69 69 68 67 65 65 65 64 64 64 62 62 61 61 61 61 60 60 60 60 59 59 59 59 59 59 57 56 58 57 58 58 58 57 56 55 52 51 52 53
69 69 69 69 69 68 67 66 65 65 64 64 64 64 63 62 62 62 61 60 60 60 60 60 59 59 58 57 56 57 56 56 57 58 58 58 57 57 56 52 52 54 53
70 69 69 69 69 68 67 66 66 65 65 64 63 64 64 64 63 62 61 60 61 60 59 59 59 59 58 57 58 57 57 56 55 58 57 56 56 56 57 55 53 52 53
70 70 69 69 69 69 67 66 66 66 66 65 64 64 63 64 64 64 63 62 61 61 60 60 59 58 57 57 59 57 57 57 57 58 57 56 57 56 56 53 53 53 53
69 69 69 69 68 69 67 65 65 67 66 66 65 65 64 64 64 64 63 63 63 63 62 61 62 59 58 61 59 59 59 58 58 58 58 55 55 53 54 53 51 51 51
70 70 70 69 69 69 67 65 65 66 66 66 65 65 65 64 64 63 63 62 62 62 63 63 62 61 61 61 62 60 58 56 55 53 55 54 53 52 52 51 51 49 47
70 71 70 70 69 69 67 65 65 67 66 66 66 66 64 65 63 62 63 63 62 61 61 62 61 59 58 56 57 59 56 52 52 50 53 52 51 50 42 49 47 45 46

GFSMA_sfc_30mbdewp_027.txt.gz
Dewpoint
69 70 71 70 69 70 68 69 69 69 70 68 68 64 63 65 65 65 65 69 70 70 69 70 70 71 69 70 70 68 70 68 69 69 69 69 69 69 69 67 68 69 68
70 70 70 69 69 70 70 69 70 69 66 65 64 66 65 63 66 66 65 65 69 70 70 69 69 70 69 70 70 70 69 70 70 69 70 68 70 69 68 68 68 69 69
71 72 70 69 69 71 72 71 70 69 64 60 61 62 62 63 62 66 66 65 65 68 69 69 69 69 70 70 70 70 70 70 71 69 69 69 70 70 70 70 69 68 70
71 72 71 70 70 71 71 69 69 68 66 61 62 62 61 62 63 65 65 66 66 64 67 68 68 68 69 69 70 71 70 69 71 71 70 69 70 71 71 71 70 70 70
71 71 70 70 72 71 70 70 68 68 63 61 61 60 61 62 63 60 63 65 66 66 65 67 67 68 68 68 68 68 69 70 70 71 71 71 71 70 71 71 71 71 71
71 71 70 71 71 69 69 69 69 66 63 62 58 60 60 63 63 62 63 64 67 67 66 67 67 66 67 68 68 68 68 68 69 69 69 70 71 70 70 70 70 70 70
71 72 70 72 71 70 70 70 68 66 61 63 59 60 60 61 59 61 64 62 66 66 66 67 66 66 67 68 68 68 69 69 69 68 69 69 69 68 68 68 68 67 68
72 72 71 71 71 69 70 70 68 63 61 63 58 58 54 57 57 58 64 62 65 62 61 62 68 69 67 66 67 68 69 70 69 69 69 68 68 69 69 68 68 68 69
72 72 72 71 71 71 69 70 68 65 59 63 63 57 53 51 57 57 62 62 64 61 60 62 64 66 67 62 59 60 64 65 63 61 61 61 61 61 62 63 63 64 65
71 72 72 72 72 70 70 70 68 65 62 59 61 61 62 62 53 53 56 60 61 60 60 60 61 63 65 60 60 57 58 57 58 57 56 56 57 57 58 59 60 61 62
72 71 72 72 72 71 71 70 68 66 63 59 60 59 59 59 60 55 52 54 59 58 58 59 58 60 63 62 59 57 56 56 57 57 56 55 56 57 57 57 58 59 59
69 71 72 73 72 71 71 71 69 67 65 62 62 61 57 55 55 56 55 56 54 56 56 57 58 59 59 61 62 61 58 58 57 58 58 58 59 60 60 60 61 61 61
67 69 72 72 71 72 71 70 70 68 66 64 64 61 61 59 58 56 54 55 54 55 56 58 58 58 58 60 61 64 64 61 60 58 58 58 59 60 61 62 61 61 62
67 69 72 72 72 72 71 70 69 67 65 65 65 63 62 62 60 58 55 54 53 54 55 55 56 58 60 60 59 64 62 63 62 61 60 59 58 58 59 60 61 61 61
67 70 71 72 72 72 71 70 67 67 65 65 64 65 62 61 61 59 58 56 52 49 50 54 53 59 60 61 61 61 61 63 63 62 61 61 60 59 59 60 61 62 62
70 69 71 72 72 72 71 70 68 67 66 65 63 64 64 61 61 61 60 59 57 54 51 54 55 57 59 60 61 62 61 61 61 61 61 61 60 60 61 62 62 63 63
70 70 71 71 71 71 71 70 69 67 66 66 64 64 64 64 61 61 60 59 58 57 53 54 56 60 61 59 58 60 60 60 59 60 59 59 60 60 60 60 60 60 61
70 71 71 71 71 71 71 70 69 68 67 66 65 64 64 63 63 62 61 61 59 59 56 57 57 58 60 61 62 62 60 57 59 58 59 59 59 59 58 58 58 57 55
70 70 71 71 71 70 71 70 70 69 67 67 66 65 64 63 63 59 60 59 58 60 60 57 56 59 59 60 60 62 62 60 60 58 58 57 58 58 57 56 55 52 51
70 71 71 71 71 70 70 70 70 69 69 68 67 66 65 64 63 64 62 62 61 60 60 59 58 57 59 60 60 58 57 59 57 58 57 57 58 58 56 54 50 51 53
71 71 71 71 71 70 69 70 69 69 69 68 68 67 66 65 64 64 61 62 62 62 59 59 59 59 58 59 58 58 56 56 58 60 59 57 57 55 55 57 54 51 52
71 71 71 71 71 70 69 68 70 69 69 69 68 68 67 66 64 62 62 63 64 63 61 59 58 58 60 61 60 57 56 56 53 60 59 56 59 57 56 56 56 54 53
71 71 71 71 71 71 67 67 67 69 69 69 69 68 67 66 65 64 63 61 61 62 62 63 61 61 62 61 60 60 59 57 57 58 60 55 56 55 53 51 54 54 53
71 71 71 71 71 71 67 66 66 68 69 69 69 69 68 67 67 65 65 64 63 63 62 62 63 63 63 62 60 60 61 61 60 59 60 54 51 51 50 48 50 51 51
71 71 71 71 71 71 67 65 65 68 69 69 69 69 68 68 67 65 65 65 64 64 64 63 64 63 61 61 61 61 59 57 53 52 55 51 48 48 47 46 44 45 43
70 70 71 71 71 71 68 65 65 67 68 68 69 69 66 67 66 63 65 65 64 64 64 63 63 62 61 62 61 62 56 51 47 47 51 47 44 44 40 38 41 39 37

GFSMA_sfc_30mbdewp_030.txt.gz
Dewpoint
68 68 68 66 67 66 65 66 65 65 66 67 64 59 57 58 58 58 62 69 70 69 69 69 70 69 70 70 70 69 69 66 69 69 69 69 69 69 69 68 67 68 69
69 67 67 66 66 67 67 68 66 66 64 62 65 61 55 57 58 59 59 65 69 70 68 69 69 70 70 70 70 69 69 70 69 69 69 69 70 69 68 68 67 68 69
70 71 68 67 66 69 68 68 66 65 62 59 62 57 56 59 58 58 59 60 65 68 69 68 69 70 71 69 70 70 70 70 70 71 69 70 69 70 70 70 69 68 69
71 71 68 67 68 69 67 67 65 63 60 59 58 57 55 58 60 59 59 61 60 62 67 68 68 69 69 70 70 71 71 70 70 70 70 69 69 70 71 70 70 70 70
70 71 69 68 71 68 68 67 65 65 60 59 59 55 54 57 60 55 58 60 61 59 60 66 68 68 68 68 68 68 69 70 70 70 70 70 71 71 70 71 71 71 71
69 71 69 68 68 67 66 67 66 65 61 59 55 53 55 58 56 56 56 56 61 61 60 63 65 66 68 68 68 68 68 68 69 69 69 69 70 70 70 69 70 70 70
71 72 69 69 70 68 68 68 67 66 60 61 53 55 56 57 56 55 55 54 57 57 58 60 60 61 65 68 68 68 69 69 69 69 70 70 70 69 69 68 68 68 69
71 72 71 69 69 67 70 70 68 62 61 56 54 53 51 53 54 54 55 55 55 54 55 57 63 64 63 65 65 67 70 69 69 69 68 67 67 67 67 67 67 68 68
71 73 71 68 70 70 67 70 69 66 58 58 61 56 50 49 51 54 58 55 57 54 55 58 58 62 61 56 59 60 64 64 59 58 58 58 59 60 61 62 63 63 64
70 71 72 71 72 69 69 71 69 66 66 55 58 58 61 61 51 51 54 56 56 56 56 55 57 58 59 56 56 56 57 58 58 57 56 57 57 57 57 58 59 60 61
71 70 71 72 72 71 70 71 70 69 66 57 55 57 57 56 57 53 51 53 56 55 56 57 55 56 58 57 57 55 56 56 57 57 56 56 57 58 58 58 59 59 60
68 70 70 72 72 71 71 72 71 70 68 63 56 58 54 53 53 54 52 53 53 55 56 55 56 56 56 57 59 58 56 58 57 58 58 58 59 61 61 61 61 61 62
64 68 71 71 71 73 71 72 72 69 70 66 63 58 57 56 54 52 50 50 50 52 54 54 55 56 56 57 57 59 61 59 60 59 58 58 59 59 61 61 61 61 61
65 66 70 71 71 71 72 72 71 70 68 68 65 62 56 58 58 56 53 51 51 51 52 54 54 54 55 56 60 63 60 63 63 62 61 59 59 59 60 61 61 62 62
65 67 68 71 70 71 72 72 70 70 67 68 64 65 61 56 58 57 56 54 51 48 49 54 51 55 55 56 59 60 60 63 63 63 62 61 61 61 61 60 62 63 64
69 67 69 70 70 71 72 72 70 70 69 67 64 62 63 56 58 58 56 55 54 52 49 51 52 53 56 55 60 60 59 61 61 60 60 61 60 61 60 61 61 62 62
71 71 70 70 69 71 72 72 71 68 70 68 66 63 64 62 56 55 57 56 55 55 52 51 54 57 61 61 57 58 58 57 56 59 59 59 60 60 60 59 60 59 59
72 72 72 71 70 70 71 72 71 68 69 69 68 67 64 63 64 60 57 59 56 55 53 54 54 57 61 61 60 61 59 56 55 60 58 58 58 59 58 58 57 57 57
73 70 72 72 71 70 71 71 71 71 69 70 69 68 66 63 63 59 60 56 57 58 58 55 53 57 56 59 61 62 60 60 58 59 57 56 58 58 58 58 56 55 53
73 72 72 73 72 71 70 70 70 70 70 69 70 69 67 66 64 64 61 61 58 56 57 57 54 53 57 57 58 55 57 60 57 56 56 56 57 58 59 57 55 54 50
73 73 73 73 73 70 69 71 71 70 70 70 70 70 69 68 66 65 63 62 61 61 54 55 56 54 55 55 57 56 56 58 56 59 57 56 57 58 57 56 55 57 54
73 73 72 73 72 70 68 68 71 69 71 71 70 70 70 68 67 64 64 63 63 62 61 55 55 55 57 58 58 58 56 54 52 57 59 56 56 56 54 53 55 55 55
73 73 73 72 73 72 67 66 68 69 70 71 71 70 69 69 68 67 64 63 62 64 63 62 60 59 58 61 62 60 59 58 57 56 61 56 54 52 52 50 53 50 50
73 73 73 73 73 73 70 66 67 69 70 70 70 71 71 70 69 68 67 65 63 63 63 62 62 62 63 63 64 62 61 60 60 58 59 56 52 47 49 48 49 49 49
72 72 72 73 73 73 70 67 66 69 69 71 71 71 71 71 70 67 68 67 66 65 64 63 63 64 64 63 62 60 58 59 56 53 58 52 48 46 47 46 45 45 40
71 70 71 72 72 73 71 66 66 68 68 68 71 72 69 71 69 66 67 67 67 67 66 64 64 63 62 62 60 61 58 55 52 46 52 48 43 43 42 42 40 39 38

GFSMA_sfc_30mbdewp_033.txt.gz
Dewpoint
67 68 67 67 67 68 68 66 65 65 64 65 63 63 56 53 55 62 62 68 69 69 70 70 70 70 70 70 70 70 67 66 69 70 69 69 69 69 69 68 67 68 69
67 67 66 67 66 70 69 66 66 67 67 63 60 60 55 56 56 59 62 66 69 69 69 69 70 70 70 70 70 69 69 69 68 69 69 69 69 69 69 68 67 68 69
69 70 67 67 68 70 68 68 67 68 63 59 59 54 56 58 55 57 63 63 66 70 68 69 69 70 71 69 70 70 70 70 70 70 70 69 69 70 70 70 70 69 68
70 70 68 65 69 68 64 67 62 60 61 55 56 54 56 56 57 55 58 64 65 63 69 68 69 70 70 70 70 70 70 71 70 71 71 70 69 69 71 71 70 70 70
69 71 70 69 69 68 65 62 64 61 56 55 57 54 55 55 58 55 56 57 60 64 63 68 68 68 68 68 68 69 70 70 70 70 70 70 70 70 71 70 70 71 71
69 70 69 69 67 68 67 68 65 60 60 56 53 52 55 55 55 56 55 59 57 57 64 65 65 66 68 68 68 68 68 68 69 69 69 69 69 70 70 70 70 70 70
69 70 69 70 68 69 67 66 66 64 60 57 53 53 54 54 54 53 53 54 55 58 56 58 65 66 66 68 68 68 68 69 69 69 70 69 70 69 69 69 69 69 69
69 70 70 70 69 69 68 69 67 65 57 54 57 52 51 51 52 53 52 52 54 53 54 56 58 65 67 67 65 68 70 69 69 68 67 67 67 67 67 67 67 68 68
69 72 71 68 69 70 70 70 67 63 58 54 61 58 51 52 50 52 54 55 55 52 54 56 58 60 62 56 59 62 65 62 59 58 58 59 60 60 61 61 62 62 63
69 70 69 68 70 68 70 70 68 66 65 55 55 57 62 62 58 53 53 54 56 55 55 55 57 58 58 56 58 57 59 60 59 58 58 59 58 58 58 59 59 60 60
70 68 71 70 71 71 70 70 70 69 64 60 55 54 55 52 55 55 55 55 55 54 57 57 55 58 58 56 56 55 58 58 58 58 57 58 59 59 59 59 59 60 60
69 71 70 72 73 72 69 71 71 70 69 62 57 56 55 54 54 54 52 55 55 56 54 55 55 55 56 57 59 55 57 57 58 58 57 58 59 60 60 60 61 61 62
62 69 72 72 71 73 70 71 73 70 70 67 64 58 56 55 54 53 51 51 51 52 54 54 54 55 55 55 58 57 57 57 58 58 59 59 59 60 60 61 61 62 62
62 65 73 72 72 72 72 72 71 71 70 69 66 64 58 57 56 55 54 52 52 51 52 53 54 54 55 55 60 59 60 58 58 59 59 59 59 60 60 61 61 61 62
63 67 70 72 72 72 72 73 70 72 69 69 67 66 63 55 56 56 55 54 52 50 50 57 52 56 54 56 59 58 58 62 62 62 62 61 61 61 62 63 62 62 63
70 69 69 70 72 72 72 73 70 71 71 68 64 66 66 57 55 56 55 54 53 51 50 52 54 53 56 55 60 58 58 63 63 63 62 61 60 61 61 61 61 62 63
72 71 72 71 72 72 72 73 72 70 71 71 68 66 66 66 56 54 56 55 54 54 51 50 53 59 59 60 59 59 59 59 58 59 58 59 59 59 60 60 60 60 59
73 73 73 73 72 72 72 73 73 67 71 71 70 68 66 64 66 64 57 59 56 57 54 58 55 58 62 63 63 63 60 56 56 60 60 59 58 58 58 59 58 58 57
74 73 73 73 73 72 72 74 73 72 71 71 71 71 69 67 66 61 61 57 57 58 58 57 54 56 57 61 62 64 63 62 60 60 58 57 57 56 57 58 57 57 56
74 74 73 74 74 74 73 73 73 73 72 71 72 72 71 69 67 67 65 63 61 58 58 57 55 53 54 58 59 58 58 61 60 56 57 56 57 57 57 57 58 58 54
74 74 74 74 74 74 72 72 72 72 73 72 72 72 72 71 69 68 65 64 63 61 54 54 56 56 54 55 58 58 58 56 58 55 57 57 58 57 59 58 58 58 55
74 74 74 74 73 73 70 69 72 72 72 73 72 72 72 71 69 67 66 66 66 65 63 60 57 56 61 59 57 57 57 56 56 61 57 58 59 59 57 56 59 57 58
74 74 74 74 74 74 70 67 68 72 72 72 73 73 72 69 71 69 65 65 64 65 65 66 64 63 62 62 62 62 62 60 59 60 60 57 57 54 51 52 54 52 51
74 74 74 74 74 74 72 67 66 70 71 72 72 73 73 70 71 71 70 67 66 65 65 64 66 66 65 65 65 65 63 63 63 61 61 57 55 52 48 48 51 50 47
74 74 74 75 75 74 72 70 66 69 70 71 71 73 73 73 72 69 71 70 68 67 65 65 65 64 64 64 64 63 60 61 60 58 61 56 52 47 45 45 48 48 44
74 73 74 74 74 75 73 70 68 70 69 70 71 72 71 72 72 68 70 71 69 68 67 65 64 63 64 63 62 64 60 59 59 56 58 53 49 44 42 43 43 45 43

GFSMA_sfc_30mbdewp_036.txt.gz
Dewpoint
70 70 70 67 69 70 70 70 70 68 68 64 64 63 57 58 63 63 68 70 69 70 69 70 70 70 70 70 69 69 66 68 70 69 69 69 69 69 68 68 67 67 69
70 71 70 68 71 70 68 69 70 69 65 64 64 62 59 60 63 63 66 70 70 70 70 70 70 70 70 70 70 69 70 67 67 69 68 69 70 69 69 68 67 67 68
70 69 70 69 71 71 71 69 64 66 65 60 60 61 59 57 61 63 64 66 70 70 70 70 71 71 70 70 70 70 70 70 70 70 70 69 70 69 70 70 70 70 69
71 72 70 70 66 69 70 66 70 66 66 64 57 60 59 59 58 64 64 65 67 67 70 70 70 71 70 70 70 70 70 71 71 71 71 71 70 70 70 71 71 70 70
71 72 71 68 71 70 70 68 66 66 63 59 56 61 59 56 59 58 63 66 66 66 66 70 70 70 69 69 69 69 70 71 71 71 71 71 71 71 71 70 70 71 71
71 72 71 70 71 70 68 67 66 64 61 59 55 58 58 59 59 59 59 62 66 66 65 67 70 69 69 69 68 68 68 68 69 69 69 70 69 70 70 71 70 70 70
71 72 71 70 70 69 69 68 67 65 64 57 58 57 58 55 56 57 60 59 64 64 65 68 68 67 69 69 68 68 68 68 69 70 70 70 70 69 69 69 69 69 69
72 72 71 70 70 68 70 69 68 67 62 58 60 58 55 56 55 57 57 56 59 59 57 67 66 68 68 68 69 70 70 70 70 69 68 68 68 68 67 66 66 68 68
71 72 71 71 70 71 69 70 69 68 62 58 63 63 58 54 56 57 56 55 56 56 57 62 65 69 67 62 67 68 67 65 61 59 59 61 62 62 61 61 61 61 61
71 72 72 73 71 70 70 71 71 69 65 57 58 60 62 63 57 53 58 57 58 56 60 59 61 64 66 62 61 61 61 61 61 60 60 59 60 59 59 59 59 60 60
73 72 73 72 72 72 71 71 72 70 69 65 58 57 59 61 59 60 54 58 58 60 58 59 61 60 62 60 57 57 59 60 60 61 61 60 60 59 59 60 60 61 61
72 73 73 73 73 73 72 72 72 72 71 69 64 60 58 57 58 57 59 59 58 59 61 58 59 61 61 62 57 56 58 59 60 59 59 60 61 60 60 60 61 61 62
70 72 73 73 73 73 74 74 73 73 72 71 67 65 62 61 59 58 56 58 57 58 58 59 60 59 60 63 62 57 59 59 59 59 59 59 60 60 61 61 61 62 62
66 71 72 73 73 73 74 73 75 74 73 72 71 66 65 64 60 58 57 58 54 55 57 55 57 61 60 60 60 59 60 58 58 57 58 59 59 60 60 61 61 62 62
67 69 73 73 73 74 74 74 72 74 72 72 71 70 67 65 62 61 59 57 57 55 57 59 56 58 62 62 62 62 62 58 58 58 58 59 59 61 61 62 63 63 62
68 70 73 73 73 73 74 74 73 73 73 72 71 69 68 64 62 62 59 59 57 56 54 59 58 60 57 63 63 63 62 63 60 60 61 61 62 62 61 62 63 63 63
73 70 74 73 73 73 73 74 73 72 73 72 70 69 69 66 65 62 60 59 60 58 55 56 61 64 62 61 61 62 63 64 63 62 62 63 61 60 60 61 61 61 60
72 74 73 72 73 73 73 73 73 71 72 73 71 68 70 68 66 66 67 60 59 61 59 58 60 63 64 63 65 65 62 59 62 62 63 58 58 58 58 58 59 58 58
74 73 74 74 72 73 73 74 73 73 70 73 73 71 70 68 67 65 64 63 62 62 63 59 60 62 65 67 64 65 66 65 64 61 59 57 59 57 57 57 57 57 57
73 73 73 73 74 73 73 73 73 74 73 71 73 73 72 70 68 68 66 63 63 63 61 61 61 60 61 65 66 64 64 65 64 62 58 59 58 58 57 56 56 57 57
73 74 74 73 74 74 73 73 73 73 74 72 72 73 73 73 71 69 68 68 64 63 63 61 59 60 59 60 62 62 60 61 64 64 61 59 60 60 59 58 58 59 58
74 74 74 74 73 73 73 72 73 73 73 73 73 72 73 72 72 69 68 66 67 64 61 59 60 60 61 61 64 62 61 60 58 62 60 60 62 62 61 62 61 60 59
74 74 74 74 74 74 72 71 70 72 72 73 73 73 73 72 72 71 67 66 65 66 65 63 63 63 64 64 64 63 62 63 61 63 60 59 61 59 62 55 55 58 58
74 74 74 75 74 74 73 70 69 71 72 72 73 73 73 72 72 72 70 67 66 66 66 66 67 66 68 66 66 66 64 64 65 65 64 59 60 60 56 56 56 54 50
74 75 75 75 75 74 73 71 68 70 70 71 72 73 73 73 72 70 71 69 67 67 67 65 65 68 67 66 68 66 65 63 62 62 64 61 60 58 51 55 55 51 49
75 74 75 75 75 75 74 71 69 71 70 70 71 72 71 72 72 69 71 71 69 68 67 66 64 64 64 64 64 66 64 62 61 60 62 61 59 53 47 49 55 50 49

GFSMA_sfc_30mbdewp_042.txt.gz
Dewpoint
68 69 69 70 69 69 68 69 68 68 68 65 64 67 67 66 69 71 72 72 72 71 70 69 67 67 67 69 70 70 70 69 69 69 69 69 69 69 68 68 67 67 68
69 69 69 68 68 69 69 68 69 68 66 65 62 64 64 65 67 70 71 72 72 73 71 70 70 69 69 69 68 68 67 69 70 70 69 70 70 69 69 69 69 68 68
70 69 70 70 68 69 68 67 67 67 63 64 61 63 63 64 66 68 69 70 72 72 72 71 71 71 70 71 70 69 70 68 67 68 69 69 70 70 70 70 70 70 70
70 70 70 70 70 71 70 70 68 64 64 64 62 60 63 64 64 66 68 68 70 71 72 72 71 71 71 70 70 71 71 70 71 71 71 71 71 70 71 70 70 70 71
71 68 69 70 70 70 70 67 68 66 64 63 62 60 62 63 63 65 65 66 68 69 71 71 70 71 70 70 70 71 70 71 71 71 71 70 70 70 70 69 70 70 69
71 71 69 68 70 69 69 68 65 64 63 62 59 60 59 62 63 64 64 66 67 67 68 70 70 70 70 70 70 70 70 70 69 70 70 70 70 70 70 70 69 69 69
71 71 70 70 70 69 69 66 66 63 60 60 59 57 58 58 62 64 66 65 66 66 67 68 69 69 70 69 69 69 68 69 69 70 70 70 70 70 70 69 69 70 69
71 71 70 69 70 69 69 68 67 65 62 59 59 57 53 53 60 61 65 65 65 65 65 66 67 68 69 69 68 69 70 70 71 70 70 69 68 67 66 66 65 65 63
71 71 70 70 70 70 69 69 68 65 57 61 61 58 54 51 55 59 61 64 64 64 64 66 66 67 69 68 70 70 71 70 69 66 63 62 61 61 60 60 60 60 60
71 72 71 70 71 70 68 69 69 67 57 57 59 63 63 60 51 52 57 59 62 62 63 67 67 67 67 66 68 69 70 68 63 60 60 60 60 60 59 60 60 60 60
71 71 71 70 70 71 69 69 70 69 63 57 55 60 60 61 60 54 52 56 59 58 63 66 66 66 66 64 65 67 67 62 61 62 61 61 60 60 60 60 60 61 62
70 71 71 71 71 71 71 69 70 69 68 63 62 60 56 56 56 57 57 56 55 57 60 63 66 66 66 62 63 62 64 61 61 62 62 62 62 62 62 62 62 62 62
68 70 72 71 71 71 70 70 71 70 68 68 65 62 60 56 60 57 57 57 57 58 59 60 62 65 65 61 62 61 62 61 61 61 61 61 62 62 63 62 62 62 62
68 70 71 72 72 72 72 71 70 71 70 69 68 65 64 64 63 59 55 57 54 57 59 57 60 61 63 62 61 63 60 61 60 60 60 60 60 61 61 61 62 61 62
70 70 71 72 72 72 72 72 71 70 72 70 68 69 65 63 64 64 59 58 55 54 55 57 56 61 61 63 60 62 58 60 60 59 59 58 59 59 59 59 60 61 62
69 70 71 72 72 71 71 72 73 72 71 72 70 68 68 67 64 63 63 59 58 54 52 56 59 58 61 62 64 61 57 58 59 58 58 58 58 58 58 58 60 61 62
67 69 71 72 72 72 71 71 72 73 71 71 72 70 68 67 64 63 62 62 59 57 53 53 59 59 61 61 62 63 59 58 58 60 59 58 57 57 58 59 61 62 62
70 67 71 71 72 72 72 71 71 72 73 72 72 71 70 69 67 65 62 61 60 59 55 53 55 62 60 62 61 62 60 60 60 59 59 59 58 58 59 61 61 60 61
69 70 72 71 72 72 72 72 71 71 72 72 72 71 71 70 68 67 65 62 63 61 60 57 55 61 62 62 61 62 61 62 63 63 62 61 60 60 60 60 58 59 60
68 70 72 73 72 72 72 72 72 72 72 72 72 72 71 70 69 67 65 64 63 62 62 61 59 60 62 64 62 59 60 62 60 63 63 63 62 62 62 60 57 58 58
72 69 71 72 73 73 73 72 71 71 72 72 71 73 72 71 70 68 67 65 63 62 62 61 60 59 59 62 61 61 60 60 63 63 62 61 61 61 61 60 58 59 58
70 72 71 72 72 72 72 72 72 72 71 71 71 71 72 72 71 69 67 67 65 64 62 61 60 59 59 58 62 62 61 60 59 63 63 62 60 59 58 59 58 58 59
71 69 71 72 71 73 72 71 71 71 71 71 71 71 71 71 72 72 68 67 66 65 64 61 59 58 58 58 59 62 62 61 60 61 63 61 62 60 60 59 59 59 59
72 72 70 71 72 71 71 70 70 72 71 71 72 71 71 71 71 72 72 70 68 67 65 64 62 60 60 59 59 59 61 62 62 62 63 59 61 60 61 61 60 60 59
71 72 73 72 71 71 71 70 69 71 71 72 72 72 72 72 72 70 71 71 71 70 69 66 66 64 61 60 61 61 62 61 61 61 63 60 60 60 59 58 57 60 58
72 72 72 73 73 73 71 70 69 71 71 71 72 72 71 72 72 70 70 71 70 71 70 69 66 65 64 61 62 63 62 62 61 61 64 60 61 60 57 54 55 56 57

GFSMA_sfc_30mbdewp_045.txt.gz
Dewpoint
68 69 69 68 69 69 68 68 69 68 66 64 66 68 68 67 68 70 72 71 70 70 68 67 67 68 69 69 69 70 69 69 69 69 69 70 69 69 68 68 68 67 68
68 68 68 68 68 69 68 68 69 68 65 64 64 68 66 67 69 71 71 72 72 71 70 69 68 67 68 68 68 67 69 69 70 70 69 70 70 69 69 69 69 69 69
69 69 69 68 68 69 68 67 65 66 63 63 62 65 65 66 68 70 71 71 72 71 71 70 70 70 70 70 69 69 69 67 67 68 69 69 69 70 70 70 70 69 70
70 69 69 69 69 69 69 69 68 65 64 62 61 63 63 64 66 68 69 70 71 72 72 72 71 71 71 70 70 70 70 70 70 71 71 71 70 70 70 70 69 70 69
70 69 69 70 70 69 69 69 67 66 62 63 61 61 63 63 64 65 67 68 69 70 71 72 71 71 71 69 69 69 70 71 71 71 71 71 70 70 70 70 70 69 70
71 69 69 69 69 70 69 68 65 64 64 62 60 60 62 63 63 65 64 66 67 68 69 70 70 70 70 69 70 70 70 70 70 70 70 70 70 70 69 68 68 69 69
71 70 69 68 70 69 68 66 65 61 59 60 59 57 57 59 62 64 65 65 66 66 67 68 69 69 69 70 70 70 69 69 69 70 70 70 70 70 70 69 69 68 68
71 71 70 70 70 69 68 67 66 64 60 60 58 54 53 55 59 61 65 65 65 66 66 67 67 67 68 69 68 69 69 69 71 70 69 69 68 67 66 64 62 62 62
71 71 70 69 69 69 68 68 67 64 56 61 62 56 53 51 56 59 61 65 65 65 65 65 66 66 68 68 69 70 71 71 70 69 65 63 61 61 60 60 59 59 60
70 71 70 69 70 70 68 68 68 67 57 58 59 64 61 56 53 55 57 59 62 64 64 65 65 66 67 67 68 68 70 69 69 62 60 60 60 59 59 60 60 60 60
70 71 71 70 70 71 69 69 68 67 58 57 56 60 60 61 56 53 51 56 60 60 61 63 66 66 66 66 66 66 69 68 64 62 62 61 60 60 60 61 61 61 62
70 71 71 70 70 70 70 69 69 68 66 61 58 59 57 58 57 56 55 55 55 57 59 62 65 66 66 65 65 64 66 67 62 62 63 63 62 62 61 62 62 63 63
68 70 71 71 70 70 71 70 69 70 69 65 62 61 59 56 58 57 56 57 56 56 59 60 63 66 66 65 64 64 63 64 61 61 62 62 63 64 64 63 62 62 62
67 69 71 71 70 71 71 70 70 70 69 68 67 63 63 61 60 59 57 56 55 56 59 57 60 62 65 65 63 63 62 62 60 60 61 61 61 62 63 64 63 63 62
67 68 69 71 71 71 71 71 70 70 71 69 68 68 64 63 64 62 58 57 54 52 53 57 57 60 61 64 64 63 63 60 60 60 60 60 60 60 61 61 61 61 61
67 68 69 70 71 72 71 71 70 70 70 70 69 67 68 67 63 63 63 60 58 55 53 55 57 58 61 61 63 63 62 61 60 60 59 59 59 59 59 60 60 60 61
67 69 69 70 71 71 71 71 71 71 70 70 71 70 68 67 66 65 63 62 60 57 54 54 57 59 60 60 62 64 62 61 59 60 59 58 58 59 58 58 59 59 61
67 68 70 70 71 71 71 71 70 71 71 71 71 71 70 70 67 66 64 62 61 60 57 55 54 57 59 61 61 62 63 61 58 58 59 59 58 58 58 57 57 59 61
68 68 69 70 70 71 71 71 71 70 71 72 71 71 71 70 69 69 67 65 62 61 60 58 56 57 60 62 61 62 62 61 61 60 59 59 59 59 58 58 57 59 61
68 69 69 69 70 71 72 71 71 71 71 71 72 72 72 71 70 70 68 67 65 63 61 60 60 59 59 61 62 59 60 61 60 61 62 62 62 61 61 60 60 60 59
70 69 69 70 71 71 71 71 72 71 71 71 71 72 72 72 71 70 69 68 66 65 63 61 60 60 60 61 61 60 58 58 61 61 61 62 62 62 62 63 63 62 60
71 70 69 69 71 71 71 71 71 71 71 71 71 71 72 71 71 70 69 69 68 66 64 63 62 60 59 59 61 59 59 58 57 62 61 60 61 61 61 61 61 61 59
69 71 71 69 70 70 70 71 71 71 70 70 70 70 71 71 71 71 70 68 67 67 67 67 64 63 61 60 60 60 60 59 58 60 61 59 61 60 61 60 59 59 58
70 70 70 71 71 71 70 69 70 71 71 71 71 71 70 70 71 71 71 71 69 68 67 66 67 67 65 63 60 59 59 60 61 61 62 57 61 60 61 60 60 59 58
71 71 70 69 69 71 70 70 69 70 71 71 71 71 71 71 71 70 70 70 71 71 70 68 67 67 66 65 62 60 59 59 59 61 63 60 61 61 61 61 62 61 60
71 72 72 72 71 70 70 69 68 71 71 71 71 72 71 71 71 70 70 70 70 70 71 71 70 67 65 65 62 61 63 61 59 60 62 61 61 60 58 59 60 60 61

GFSMA_sfc_30mbdewp_048.txt.gz
Dewpoint
68 69 68 67 69 70 68 69 68 68 65 64 68 68 69 68 69 70 71 70 70 69 67 69 69 69 69 69 69 69 69 69 69 69 69 69 69 69 68 69 69 68 68
68 68 68 69 69 69 69 69 68 67 65 64 66 68 68 68 69 71 71 72 71 71 68 67 67 67 68 69 69 68 69 69 70 70 69 70 70 70 69 69 70 69 69
68 69 68 68 68 69 68 68 65 65 63 63 65 67 67 68 69 70 71 72 71 71 71 70 69 69 68 68 68 69 68 67 67 67 68 69 70 69 69 70 69 69 69
69 70 69 69 69 69 69 69 67 64 63 62 63 65 65 66 68 70 70 71 72 71 71 71 70 70 70 70 71 70 70 70 70 70 70 70 70 70 70 70 69 69 69
69 70 69 70 70 69 69 69 68 65 64 63 62 63 64 64 65 67 68 69 70 71 71 71 71 71 70 69 70 70 70 70 70 70 70 70 70 69 70 69 69 69 69
70 70 70 70 69 69 68 67 66 65 65 61 60 61 63 64 64 65 66 67 68 69 70 70 71 70 70 70 70 70 70 70 70 70 70 70 69 69 69 69 69 69 69
71 69 69 69 70 68 68 66 65 60 60 61 58 58 58 60 63 65 65 66 66 67 68 69 69 69 69 70 70 70 69 69 69 70 70 70 70 70 69 68 68 67 64
71 70 69 69 69 69 68 66 65 64 59 61 57 56 54 56 60 62 65 66 66 66 66 67 68 68 68 70 69 69 69 69 71 70 69 69 68 67 65 62 61 61 61
71 71 70 70 70 69 68 68 67 64 57 62 61 56 54 52 57 60 62 65 66 66 66 66 66 67 68 69 69 70 70 71 70 69 66 64 62 61 60 60 59 59 60
70 71 71 70 70 70 69 68 68 66 58 59 61 64 59 57 54 55 58 60 63 65 65 65 65 66 67 68 67 68 69 70 70 65 60 60 60 59 59 60 60 60 60
70 70 71 70 69 70 69 69 68 67 59 59 58 61 62 60 56 54 54 56 59 62 64 64 65 66 67 67 67 66 66 69 68 64 62 61 60 60 60 61 61 62 62
69 70 71 70 70 70 70 69 69 68 65 59 58 61 59 59 57 55 54 55 56 58 61 62 63 65 67 67 67 66 63 67 66 62 63 63 63 62 61 61 62 62 63
68 69 70 70 70 70 70 70 69 69 68 64 61 59 60 58 59 58 57 57 56 58 59 61 61 64 66 67 67 67 65 63 65 61 61 62 62 64 65 64 64 63 63
67 69 70 71 70 71 70 71 70 70 69 69 67 63 62 61 60 59 57 57 55 57 59 58 61 62 65 67 67 66 66 63 62 61 60 61 62 62 63 64 65 64 64
67 68 69 70 71 71 71 71 70 69 70 69 68 68 65 64 64 62 60 59 56 53 54 57 58 61 63 65 66 67 66 64 62 61 59 59 60 61 61 61 62 62 62
67 67 68 69 70 71 71 71 70 70 70 70 70 68 68 67 65 64 64 60 58 57 55 56 58 60 61 62 64 66 65 64 63 62 61 59 59 60 60 60 60 60 60
67 67 68 68 69 70 71 71 71 71 70 70 70 70 69 68 67 66 64 63 62 59 57 58 57 60 60 61 62 64 65 64 64 62 62 61 59 59 59 60 59 59 59
67 68 69 68 69 70 70 71 70 71 70 69 70 70 70 70 69 68 66 64 63 62 60 59 59 58 59 61 62 62 63 63 63 62 61 61 60 59 58 58 58 59 59
67 67 68 69 69 70 71 71 71 71 71 71 70 70 70 71 70 70 69 67 65 63 62 60 60 59 59 61 61 62 63 64 64 62 60 60 60 59 58 58 57 58 58
68 68 68 69 69 70 71 71 71 71 71 71 71 71 71 71 70 70 70 69 68 66 64 63 61 61 60 61 62 60 60 62 62 62 62 61 60 60 60 59 58 58 58
68 68 68 68 69 70 70 71 71 71 71 70 71 72 72 71 71 71 70 70 69 68 67 65 65 64 61 61 61 60 61 61 62 62 62 62 62 62 62 62 62 61 59
69 69 69 69 69 69 69 69 71 71 71 70 70 71 72 71 71 70 70 70 70 68 67 66 65 65 65 64 63 61 61 60 59 62 61 60 62 61 62 63 62 62 61
70 70 70 69 69 70 69 68 69 70 70 71 71 71 71 71 71 71 70 69 69 68 68 69 67 67 66 67 65 63 62 62 61 61 62 59 61 61 61 61 62 62 61
69 70 70 70 69 69 69 68 69 70 70 71 71 71 71 70 71 71 71 71 70 70 69 68 69 70 70 70 69 66 65 64 63 63 63 59 60 61 62 62 61 61 60
70 69 70 70 71 70 68 68 68 70 70 70 71 72 71 71 71 69 70 70 70 71 71 69 68 68 68 67 67 68 64 61 61 62 64 61 61 62 64 63 64 60 59
71 70 70 70 70 70 70 68 68 69 69 70 71 71 71 71 71 69 70 70 70 71 71 71 71 69 67 67 65 65 67 66 64 63 64 62 62 62 60 62 64 62 60